Date String (YYYY-MM-DD hh:mm:ss) UTC,Instrument flags,Ambient pressure (hPa),Sample flow (lpm),Bypass flow (lpm),Sample temperature (°C),Ambient temperature (°C),ASC tube jacket temperature (°C),LED temperature (°C),Box temperature (°C),Sample RH (%),Span deviation,Mass concentration (μg/m³),Mass concentration (μg/m³),Mass concentration (μg/m³)
DateTimeUTC,F1_M11,P_M11,Q1_M11,Q2_M11,T1_M11,T2_M11,T3_M11,T4_M11,T5_M11,U1_M11,ZSPAN_M11,X0_M11,X2_M11,X1_M11
2021-12-06 15:00:00,,0829.1,5.01,0.00,22.7,23.5,00.0,31.5,24.7,06.4,0000.0,0008.48,0002.94,0001.68
2021-12-06 15:01:00,,0829.1,4.99,0.00,22.8,23.3,00.0,31.5,24.7,06.4,0000.0,0008.52,0002.94,0001.65
2021-12-06 15:02:00,,0829.0,5.01,0.00,22.8,23.1,00.0,31.6,24.7,06.4,0000.0,0008.74,0002.95,0001.65
2021-12-06 15:03:00,,0829.0,4.99,0.00,22.8,22.8,00.0,31.6,24.6,06.4,0000.0,0009.05,0003.07,0001.66
2021-12-06 15:04:00,,0829.0,4.99,0.00,22.8,22.6,00.0,31.6,24.6,06.4,0000.0,0009.17,0003.07,0001.65
2021-12-06 15:05:00,,0829.0,5.00,0.00,22.8,22.4,00.0,31.6,24.5,06.4,0000.0,0008.71,0002.99,0001.64
2021-12-06 15:06:00,,0828.9,5.00,0.00,22.7,22.3,00.0,31.6,24.5,06.4,0000.0,0008.49,0002.96,0001.65
2021-12-06 15:07:00,,0828.8,4.99,0.00,22.7,22.2,00.0,31.6,24.4,06.4,0000.0,0008.61,0002.94,0001.64
2021-12-06 15:08:00,,0829.0,5.01,0.00,22.7,22.1,00.0,31.6,24.4,06.4,0000.0,0008.61,0002.98,0001.63
2021-12-06 15:09:00,,0829.1,5.00,0.00,22.7,22.0,00.0,31.6,24.4,06.4,0000.0,0008.72,0003.01,0001.62
2021-12-06 15:10:00,,0829.1,5.01,0.00,22.7,21.9,00.0,31.6,24.4,06.3,0000.0,0008.65,0003.00,0001.62
2021-12-06 15:11:00,,0829.0,5.00,0.00,22.7,21.9,00.0,31.6,24.4,06.3,0000.0,0008.52,0002.93,0001.62
2021-12-06 15:12:00,,0828.9,5.00,0.00,22.6,21.9,00.0,31.6,24.4,06.4,0000.0,0008.43,0002.90,0001.61
2021-12-06 15:13:00,,0828.9,5.00,0.00,22.6,21.8,00.0,31.6,24.3,06.3,0000.0,0008.19,0002.87,0001.61
2021-12-06 15:14:00,,0829.0,5.01,0.00,22.6,21.8,00.0,31.6,24.3,06.3,0000.0,0007.87,0002.83,0001.60
2021-12-06 15:15:00,,0828.9,4.99,0.00,22.6,21.7,00.0,31.6,24.3,06.3,0000.0,0007.63,0002.72,0001.60
2021-12-06 15:16:00,,0828.9,5.01,0.00,22.6,21.7,00.0,31.6,24.3,06.4,0000.0,0007.88,0002.73,0001.59
2021-12-06 15:17:00,,0829.0,5.00,0.00,22.6,21.7,00.0,31.5,24.2,06.4,0000.0,0007.77,0002.76,0001.59
2021-12-06 15:18:00,,0829.0,5.00,0.00,22.6,21.7,00.0,31.5,24.2,06.3,0000.0,0007.15,0002.73,0001.59
2021-12-06 15:19:00,,0828.9,5.00,0.00,22.5,21.6,00.0,31.5,24.2,06.3,0000.0,0006.90,0002.73,0001.59
2021-12-06 15:20:00,,0829.1,5.01,0.00,22.5,21.6,00.0,31.5,24.2,06.3,0000.0,0006.27,0002.68,0001.59
2021-12-06 15:21:00,,0828.9,4.99,0.00,22.5,21.8,00.0,31.5,24.2,06.3,0000.0,0006.16,0002.69,0001.59
2021-12-06 15:22:00,,0829.1,5.00,0.00,22.6,22.5,00.0,31.5,24.4,06.3,0000.0,0006.22,0002.67,0001.60
2021-12-06 15:23:00,,0828.9,5.01,0.00,22.7,23.3,00.0,31.6,24.7,06.3,0000.0,0006.91,0002.71,0001.60
2021-12-06 15:24:00,,0828.9,5.00,0.00,22.8,23.4,00.0,31.6,24.8,06.2,0000.0,0007.38,0002.83,0001.61
2021-12-06 15:25:00,,0828.9,5.01,0.00,22.9,23.1,00.0,31.6,24.8,06.2,0000.0,0007.45,0002.84,0001.61
2021-12-06 15:26:00,,0828.9,5.00,0.00,22.9,22.9,00.0,31.7,24.7,06.2,0000.0,0008.64,0002.98,0001.64
2021-12-06 15:27:00,,0829.0,4.99,0.00,22.8,22.7,00.0,31.7,24.7,06.2,0000.0,0009.80,0003.03,0001.65
2021-12-06 15:28:00,,0829.0,5.00,0.00,22.8,22.5,00.0,31.7,24.6,06.2,0000.0,0010.30,0003.07,0001.66
2021-12-06 15:29:00,,0828.9,5.01,0.00,22.8,22.4,00.0,31.7,24.6,06.2,0000.0,0010.97,0003.12,0001.67
2021-12-06 15:30:00,,0828.8,4.99,0.00,22.8,22.2,00.0,31.7,24.5,06.2,0000.0,0011.79,0003.17,0001.69
2021-12-06 15:31:00,,0829.0,5.01,0.00,22.8,22.1,00.0,31.7,24.5,06.2,0000.0,0013.09,0003.27,0001.71
2021-12-06 15:32:00,,0828.9,4.99,0.00,22.7,22.0,00.0,31.7,24.4,06.2,0000.0,0014.23,0003.33,0001.71
2021-12-06 15:33:00,,0828.9,5.01,0.00,22.7,22.0,00.0,31.7,24.4,06.2,0000.0,0014.87,0003.42,0001.73
2021-12-06 15:34:00,,0829.1,5.00,0.00,22.7,21.9,00.0,31.6,24.4,06.3,0000.0,0015.39,0003.49,0001.76
2021-12-06 15:35:00,,0829.0,5.00,0.00,22.7,21.8,00.0,31.6,24.3,06.3,0000.0,0016.04,0003.54,0001.78
2021-12-06 15:36:00,,0829.0,5.00,0.00,22.6,21.8,00.0,31.6,24.3,06.2,0000.0,0016.41,0003.62,0001.81
2021-12-06 15:37:00,,0828.7,5.00,0.00,22.6,21.8,00.0,31.6,24.3,06.2,0000.0,0016.21,0003.69,0001.83
2021-12-06 15:38:00,,0829.0,4.99,0.00,22.6,21.7,00.0,31.6,24.3,06.3,0000.0,0015.99,0003.78,0001.84
2021-12-06 15:39:00,,0828.9,5.00,0.00,22.6,21.7,00.0,31.6,24.3,06.3,0000.0,0016.98,0003.86,0001.86
2021-12-06 15:40:00,,0828.9,5.00,0.00,22.6,21.7,00.0,31.6,24.3,06.3,0000.0,0018.38,0003.88,0001.88
2021-12-06 15:41:00,,0829.0,5.01,0.00,22.5,21.6,00.0,31.6,24.2,06.3,0000.0,0017.93,0003.88,0001.89
2021-12-06 15:42:00,,0829.1,5.00,0.00,22.5,21.6,00.0,31.5,24.2,06.3,0000.0,0017.55,0003.86,0001.88
2021-12-06 15:43:00,,0829.0,4.99,0.00,22.5,21.9,00.0,31.5,24.2,06.4,0000.0,0017.59,0003.90,0001.90
2021-12-06 15:44:00,,0828.9,4.99,0.00,22.6,22.6,00.0,31.6,24.4,06.4,0000.0,0018.43,0003.97,0001.91
2021-12-06 15:45:00,,0829.0,5.01,0.00,22.8,23.4,00.0,31.6,24.7,06.3,0000.0,0018.75,0004.09,0001.92
2021-12-06 15:46:00,,0829.0,5.01,0.00,22.9,23.4,00.0,31.7,24.8,06.3,0000.0,0018.53,0004.15,0001.92
2021-12-06 15:47:00,,0828.6,5.00,0.00,22.9,23.1,00.0,31.7,24.8,06.3,0000.0,0019.33,0004.22,0001.92
2021-12-06 15:48:00,,0829.0,5.00,0.00,22.9,22.9,00.0,31.7,24.7,06.2,0000.0,0022.79,0004.26,0001.92
2021-12-06 15:49:00,,0828.8,5.00,0.00,22.9,22.7,00.0,31.7,24.7,06.2,0000.0,0023.20,0004.32,0001.93
2021-12-06 15:50:00,,0828.6,5.00,0.00,22.8,22.5,00.0,31.7,24.6,06.3,0000.0,0022.69,0004.32,0001.93
2021-12-06 15:51:00,,0828.9,5.00,0.00,22.8,22.4,00.0,31.7,24.6,06.2,0000.0,0021.22,0004.34,0001.92
2021-12-06 15:52:00,,0828.9,5.01,0.00,22.8,22.3,00.0,31.7,24.6,06.3,0000.0,0021.38,0004.34,0001.90
2021-12-06 15:53:00,,0828.5,5.00,0.00,22.8,22.2,00.0,31.7,24.5,06.3,0000.0,0022.08,0004.43,0001.91
2021-12-06 15:54:00,,0828.3,4.99,0.00,22.8,22.1,00.0,31.7,24.5,06.3,0000.0,0022.28,0004.44,0001.91
2021-12-06 15:55:00,,0828.3,5.01,0.00,22.8,22.0,00.0,31.7,24.5,06.3,0000.0,0022.09,0004.40,0001.91
2021-12-06 15:56:00,,0828.8,5.00,0.00,22.8,22.0,00.0,31.7,24.5,06.3,0000.0,0021.69,0004.34,0001.91
2021-12-06 15:57:00,,0829.0,4.99,0.00,22.7,21.9,00.0,31.7,24.4,06.3,0000.0,0022.30,0004.26,0001.90
2021-12-06 15:58:00,,0828.3,5.01,0.00,22.7,21.9,00.0,31.7,24.4,06.3,0000.0,0021.60,0004.17,0001.88
2021-12-06 15:59:00,,0828.4,4.99,0.00,22.7,21.9,00.0,31.7,24.4,06.3,0000.0,0018.45,0004.08,0001.88
